Home   Weather   Orange   Past weeks
Flag for USA

Past Weather in Orange, Texas, USA — Yesterday and Last 2 Weeks

Now
76 °F

Mostly cloudy.


Feels Like: 76 °F
Forecast: 82 / 73 °F
Wind: No wind

Location: Orange County Airport

Current Time: Jul 23, 2019 at 12:50:44 am

Latest Report: Jul 22, 2019 at 11:55 pm


Visibility: 7 mi

Pressure: 29.99 "Hg

Humidity: 100%

Dew Point: 76 °F

Location of OrangeLocation

Past Weather in Orange — Graph

°F

Orange Temperature Yesterday

Maximum temperature yesterday: 85 °F (at 12:55 pm)
Minimum temperature yesterday: 73 °F (at 4:15 pm)
Average temperature yesterday: 78 °F

High & Low Weather Summary for the Past Weeks

 TemperatureHumidityPressure
High95 °F (Jul 11, 2:55 pm)100% (Jul 8, 12:15 am)30.12 "Hg (Jul 8, 12:15 am)
Low73 °F (Jul 22, 4:15 pm)47% (Jul 10, 4:35 pm)29.64 "Hg (Jul 13, 3:55 pm)
Average83 °F87%29.95 "Hg
* Reported Jul 7 11:15 pm — Jul 22 11:35 pm, Orange. Weather by CustomWeather, © 2019

Note: Actual official high and low records may vary slightly from our data, if they occured in-between our weather recording intervals... More about our weather records

Advertising

Orange Weather History for the Previous 24 Hours

Scroll right to see more
 ConditionsComfort  
Time TempWeatherWind HumidityBarometerVisibility
11:35 pm
Mon, Jul 22
76 °FMostly cloudy.3 mph100%29.99 "Hg7 mi
11:15 pm77 °FPassing clouds.5 mph100%29.99 "Hg7 mi
10:55 pm77 °FPassing clouds.3 mph100%29.98 "Hg7 mi
10:35 pm77 °FClear.No wind100%29.97 "Hg10 mi
9:55 pm76 °FFog.No wind100%29.97 "Hg4 mi
9:35 pm76 °FFog.No wind100%29.98 "Hg5 mi
9:15 pm76 °FFog.No wind100%29.98 "Hg5 mi
8:55 pm77 °FPartly cloudy.No wind100%29.98 "Hg7 mi
8:35 pm77 °FPassing clouds.No wind100%29.97 "Hg7 mi
8:15 pm77 °FClear.No wind100%29.97 "Hg7 mi
7:55 pm77 °FSunny.No wind100%29.96 "Hg10 mi
7:15 pm77 °FSunny.No wind100%29.96 "Hg10 mi
6:55 pm76 °FSunny.No wind100%29.96 "Hg10 mi
6:35 pm76 °FScattered clouds.3 mph100%29.95 "Hg10 mi
6:15 pm75 °FDrizzle. Broken clouds.3 mph100%29.96 "Hg10 mi
5:55 pm75 °FLight rain. Overcast.5 mph100%29.97 "Hg10 mi
5:35 pm75 °FRain. Overcast.No wind100%29.97 "Hg7 mi
5:15 pm75 °FRain. Partly sunny.5 mph100%29.97 "Hg5 mi
4:55 pm74 °FLight rain. Broken clouds.3 mph100%29.97 "Hg7 mi
4:35 pm74 °FThundershowers. Cloudy.No wind100%29.98 "Hg7 mi
4:15 pm73 °FThunderstorms. Cloudy.6 mph100%30.00 "Hg3 mi
3:55 pm74 °FStrong thunderstorms. Mostly cloudy.7 mph100%30.02 "Hg1 mi
3:35 pm76 °FStrong thunderstorms. Cloudy.7 mph91%30.02 "Hg10 mi
3:15 pm83 °FThunderstorms. Scattered clouds.8 mph86%30.01 "Hg10 mi
2:55 pm84 °FThunderstorms. Sunny.6 mph83%30.00 "Hg10 mi
2:35 pm84 °FThundershowers. Sunny.6 mph82%29.99 "Hg10 mi
2:15 pm84 °FSunny.9 mph79%29.98 "Hg10 mi
1:55 pm84 °FSunny.9 mph80%30.00 "Hg10 mi
1:35 pm85 °FScattered clouds.9 mph81%30.00 "Hg10 mi
12:55 pm85 °FScattered clouds.7 mph83%30.03 "Hg10 mi
12:35 pm85 °FLight rain. Partly sunny.7 mph83%30.03 "Hg10 mi
12:15 pm85 °FLight rain. Broken clouds.3 mph87%30.04 "Hg10 mi
11:55 am85 °FScattered clouds.No wind85%30.04 "Hg10 mi
11:35 am84 °FBroken clouds.No wind86%30.05 "Hg10 mi
11:15 am84 °FScattered clouds.No wind86%30.04 "Hg10 mi
10:55 am84 °FPartly sunny.3 mph86%30.04 "Hg10 mi
10:35 am85 °FScattered clouds.No wind83%30.03 "Hg10 mi
10:15 am85 °FSunny.3 mph82%30.03 "Hg10 mi
9:55 am85 °FSunny.3 mph80%30.02 "Hg10 mi
9:35 am84 °FSunny.3 mph83%30.02 "Hg10 mi
8:55 am81 °FThundershowers. Partly sunny.No wind93%30.03 "Hg10 mi
8:35 am80 °FThunderstorms. Scattered clouds.No wind100%30.03 "Hg10 mi
7:55 am78 °FScattered clouds.No wind100%30.02 "Hg10 mi
6:55 am76 °FSunny.No wind100%30.00 "Hg7 mi
6:15 am76 °FClear.No wind100%30.00 "Hg7 mi
5:55 am76 °FClear.No wind100%29.99 "Hg7 mi
5:35 am76 °FClear.No wind100%29.98 "Hg10 mi
5:15 am76 °FClear.No wind100%29.98 "Hg7 mi
4:55 am76 °FClear.No wind100%29.99 "Hg10 mi
4:15 am75 °FClear.No wind100%29.98 "Hg10 mi
3:55 am75 °FClear.No wind100%29.98 "Hg7 mi
3:15 am75 °FPassing clouds.No wind100%29.98 "Hg7 mi
2:55 am74 °FClear.No wind100%29.98 "Hg7 mi
2:15 am75 °FClear.No wind100%29.97 "Hg10 mi
1:55 am75 °FClear.No wind100%29.97 "Hg10 mi
1:15 am75 °FClear.No wind100%29.97 "Hg7 mi
12:55 am75 °FClear.No wind100%29.97 "Hg10 mi
12:15 am75 °FClear.No wind100%29.98 "Hg10 mi
Weather by CustomWeather, © 2019

See weather overview